Погода в Аннаполисе

США     38°58′41″N   76°29′34″W
темп.,
°C
ветер,
м/с
пор.,
м/с
влажн.,
%
обл.,
%
осадки,
мм/ч
давл.,
гПа
погр.,
м
17 сентября, пт
пт1723:00+23всв4691100 0.0 1021348
02:00+22св4692100 0.0 1021304
05:00+22св5793100 0.0 1021372
08:00+22св5791100 0.1 1022427
11:00+24св567995 0.0 1022665
14:00+26всв467092 0.1 1021802
17:00+24св468272 1.9 1019422
20:00+23всв358427 2.0 1019277
18 сентября, сб
сб1823:00+22в228616 0.1 1019153
02:00+21с12890 0.1 1018117
05:00+21ссз22914 0.0 1018119
08:00+22ссз12890 0.0 1019172
11:00+26с136713 0.0 1019797
14:00+28в235914 0.0 10171064
17:00+25юв227190 0.1 1016117
20:00+24зюз11780 0.2 101821
19 сентября, вс
вс1923:00+22зюз23815 0.0 101853
02:00+22сз22820 0.0 101946
05:00+22ссв46800 0.0 1020229
08:00+22ссв47761 0.0 1021347
11:00+24ссв45565 0.0 1023673
14:00+26св344611 0.0 1022854
17:00+26всв34485 0.0 1020412
20:00+23св346336 0.0 1022108
20 сентября, пн
пн2023:00+22в456583 0.0 1023173
02:00+20юв2371100 0.0 1024133
05:00+19юв2371100 0.0 1024143
08:00+20вюв3472100 0.0 1025211
11:00+23вюв345874 0.0 1026643
14:00+25юв2446100 0.0 1025864
17:00+24юв245989 0.0 1024221
20:00+22юв5870100 0.0 1025523
21 сентября, вт
вт2123:00+20юв5876100 0.0 1026482
02:00+20юв5880100 0.0 1025438
05:00+19юв4783100 0.0 1025316
08:00+20юв4682100 0.0 1025380
11:00+23юв5570100 0.0 1025831
14:00+24ююв4563100 0.0 1024965
17:00+24ю5662100 0.0 1022534
20:00+23ю587295 0.0 1021481